Stations météo

Publicité
Cazaux, France (7502): Température de l'air & dewpoint: 15.07.2019 17:00:00 - 21.07.2019 17:00:00 (CEST)Cazaux, France (7502): Température de l'air 5cm: 15.07.2019 17:00:00 - 21.07.2019 17:00:00 (CEST)Cazaux, France (7502): Température de l'air -20cm & Température de l'air -100cm: 15.07.2019 17:00:00 - 21.07.2019 17:00:00 (CEST)Cazaux, France (7502): Vitesse du vent & gusts: 15.07.2019 17:00:00 - 21.07.2019 17:00:00 (CEST)Cazaux, France (7502): Direction du vent: 15.07.2019 17:00:00 - 21.07.2019 17:00:00 (CEST)Cazaux, France (7502): reduced air pressure: 15.07.2019 17:00:00 - 21.07.2019 17:00:00 (CEST)Cazaux, France (7502): visibility: 15.07.2019 17:00:00 - 21.07.2019 17:00:00 (CEST)Cazaux, France (7502): Quantités de précipitations: 15.07.2019 17:00:00 - 21.07.2019 17:00:00 (CEST)
Date & Time tt [°C] td [°C] tt 5cm [°C] tt -20cm [°C] tt -100cm [°C] ff [km/h] ff [knt] fx [km/h] fx [knt] dd ppp [hPa] vv [km] rr [mm]
21.07.2019 17:00:00 27,4 15,1 34,1 23,6 22,0 21 11 29 16 WNW 1021,5 35 0,0
21.07.2019 16:00:00 28,9 15,8 36,4 23,6 22,0 19 10 29 15 WNW 1021,5 20 0,0
21.07.2019 15:00:00 28,7 15,9 35,8 23,6 21,9 13 7 22 12 SSW 1021,8 35 0,0
21.07.2019 14:00:00 28,0 15,0 35,4 23,7 21,9 10 5 25 14 WSW 1022,2 36 0,0
21.07.2019 13:00:00 27,0 14,7 29,7 23,8 22,0 6 3 17 9 ENE 1022,7 33 0,0
21.07.2019 12:00:00 25,6 15,3 28,9 23,8 22,0 4 2 16 9 ESE 1022,8 32 0,0
21.07.2019 11:00:00 23,4 16,2 26,7 23,9 22,0 8 4 19 10 NNE 1022,8 26 0,0
21.07.2019 10:00:00 21,8 17,2 22,5 23,9 21,9 10 6 18 10 ENE 1022,7 21 0,0
21.07.2019 09:00:00 20,1 18,0 20,3 24,0 21,9 8 5 14 7 NNE 1022,8 14 0,0
21.07.2019 08:00:00 18,3 18,0 15,4 24,0 21,9 4 2 6 3 N 1022,5 16 0,0
21.07.2019 07:00:00 16,9 16,6 14,5 24,1 21,9 0 0 4 2 N 1022,2 16 0,0
21.07.2019 06:00:00 16,7 16,2 13,8 24,1 21,9 0 0 4 2 N 1021,9 2,8 0,0
21.07.2019 05:00:00 16,0 15,4 13,2 24,1 21,9 0 0 7 4 N 1021,4 0,4 0,0
21.07.2019 04:00:00 17,1 16,1 15,8 24,1 21,9 6 3 8 4 ESE 1021,3 12 0,0
21.07.2019 03:00:00 19,0 17,7 16,7 24,1 21,9 5 3 16 8 NNE 1021,2 16 0,0
21.07.2019 02:00:00 19,4 18,1 18,0 24,1 21,9 11 6 18 10 NNW 1021,1 22 0,0
21.07.2019 01:00:00 19,3 18,1 17,4 24,1 21,9 7 4 11 6 NNW 1021,4 20 0,0
21.07.2019 00:00:00 20,1 18,4 18,3 24,0 21,9 5 3 14 8 NW 1021,2 25 0,0
20.07.2019 23:00:00 20,6 18,9 19,5 23,9 21,9 9 5 16 9 WNW 1020,8 21 0,0
20.07.2019 22:00:00 21,3 18,9 20,5 23,9 21,9 8 5 21 12 WNW 1019,9 25 0,0
20.07.2019 21:00:00 22,8 18,3 24,1 23,8 21,9 14 8 26 14 WNW 1019,0 22 0,0
20.07.2019 20:00:00 23,6 17,6 25,6 23,7 21,9 17 9 29 16 NW 1018,6 40 0,0
20.07.2019 19:00:00 24,7 17,9 30,3 23,7 21,9 18 10 29 16 NW 1018,3 32 0,0
20.07.2019 18:00:00 25,6 16,7 29,9 23,6 21,9 16 9 26 14 WNW 1018,0 31 0,0
20.07.2019 17:00:00 26,5 16,7 31,8 23,6 21,9 14 8 26 14 W 1017,7 33 0,0
20.07.2019 16:00:00 26,6 15,9 31,3 23,6 21,9 14 8 26 14 WNW 1017,8 34 0,0
20.07.2019 15:00:00 26,6 16,2 30,9 23,6 21,9 16 9 28 15 W 1017,6 58 0,0
20.07.2019 14:00:00 25,7 16,8 28,0 23,6 21,9 11 6 31 17 W 1017,3 29 0,0
20.07.2019 13:00:00 25,5 17,4 29,4 23,7 21,9 13 7 25 13 SW 1017,2 31 0,0
20.07.2019 12:00:00 25,3 17,7 27,2 23,7 21,9 13 7 27 14 SW 1016,8 32 0,0
20.07.2019 11:00:00 23,7 17,7 24,4 23,8 21,9 8 5 18 10 SW 1016,6 27 0,0
20.07.2019 10:00:00 22,3 18,5 24,3 23,8 21,9 6 3 10 6 SW 1016,2 26 0,0
20.07.2019 09:00:00 21,4 18,6 21,1 23,9 21,9 3 1 5 3 WNW 1015,7 24 0,0
20.07.2019 08:00:00 19,8 18,6 18,5 23,9 21,9 3 2 7 4 W 1015,0 20 0,0
20.07.2019 07:00:00 19,0 18,0 17,6 24,0 21,9 6 3 12 6 NW 1014,3 17 0,0
20.07.2019 06:00:00 18,9 17,7 17,7 24,0 21,9 5 3 11 6 NW 1013,8 19 0,0
20.07.2019 05:00:00 18,5 17,5 17,0 24,0 21,9 8 4 11 6 NNW 1013,5 22 0,0
20.07.2019 04:00:00 18,8 17,3 17,7 24,0 21,9 7 4 16 9 NW 1013,3 27 0,0
20.07.2019 03:00:00 19,2 17,3 18,2 24,0 21,9 10 5 16 8 N 1012,7 25 0,0
20.07.2019 02:00:00 19,4 17,0 17,9 23,9 21,9 8 4 21 11 NNW 1013,1 25 0,0
20.07.2019 01:00:00 19,8 17,0 18,8 23,9 21,9 15 8 24 13 NNW 1013,0 25 0,0
20.07.2019 00:00:00 20,0 17,4 19,1 23,8 21,9 14 8 21 12 NNW 1012,7 20 0,0
19.07.2019 23:00:00 20,7 16,7 17,6 23,7 21,9 7 4 10 6 WNW 1012,7 24 0,0
19.07.2019 22:00:00 22,3 16,8 20,4 23,6 21,9 4 2 19 10 NW 1012,0 29 0,0
19.07.2019 21:00:00 25,2 16,6 25,9 23,4 21,9 14 7 20 11 NNW 1011,9 34 0,0
19.07.2019 20:00:00 27,7 16,3 30,5 23,3 21,9 13 7 22 12 NNW 1011,9 35 0,0
19.07.2019 19:00:00 28,2 15,8 34,3 23,2 21,9 16 8 24 13 NNW 1012,3 46 0,0
19.07.2019 18:00:00 28,9 16,1 35,2 23,2 21,9 15 8 25 14 WNW 1012,9 49 0,0
19.07.2019 17:00:00 29,2 16,4 38,4 23,1 21,9 15 8 29 15 N 1013,6 46 0,0
19.07.2019 16:00:00 29,0 15,9 37,4 23,1 21,9 12 6 22 12 NW 1014,4 45 0,0
19.07.2019 15:00:00 28,3 15,6 36,1 23,1 21,9 11 6 21 11 WNW 1015,0 37 0,0
19.07.2019 14:00:00 27,6 14,9 35,6 23,1 21,9 7 4 18 10 SSW 1015,9 44 0,0
19.07.2019 13:00:00 26,3 14,7 31,3 23,2 21,9 9 5 19 10 SW 1016,7 28 0,0
19.07.2019 12:00:00 24,7 15,3 27,1 23,3 21,9 9 5 19 10 SW 1017,2 35 0,0
19.07.2019 11:00:00 23,9 15,9 23,7 23,3 21,8 9 5 16 9 S 1017,5 21 0,0
19.07.2019 10:00:00 21,2 16,4 22,8 23,4 21,9 12 7 21 11 S 1018,1 22 0,0
19.07.2019 09:00:00 20,7 16,7 20,6 23,4 21,9 14 8 20 11 S 1018,2 13 0,0
19.07.2019 08:00:00 17,8 16,8 15,4 23,5 21,9 6 4 9 5 SE 1018,0 9 0,0
19.07.2019 07:00:00 16,5 16,0 14,2 23,6 21,9 5 3 11 6 SSE 1018,1 9 0,0
19.07.2019 06:00:00 15,3 14,7 11,5 23,6 21,9 4 2 7 4 SE 1017,9 10 0,0
19.07.2019 05:00:00 13,8 13,0 11,0 23,7 21,9 0 0 4 2 N 1018,3 1,2 0,0
19.07.2019 04:00:00 14,4 13,4 11,1 23,7 21,9 3 1 4 2 SE 1018,4 14 0,0
19.07.2019 03:00:00 14,7 13,6 11,8 23,7 21,9 0 0 0 0 N 1018,7 20 0,0
19.07.2019 02:00:00 15,3 13,3 12,5 23,7 21,9 0 0 4 2 N 1018,8 13 0,0
19.07.2019 01:00:00 16,6 15,0 12,5 23,6 21,9 3 1 4 2 WNW 1018,9 18 0,0
19.07.2019 00:00:00 17,7 15,5 14,5 23,6 21,9 3 2 8 4 W 1018,8 20 0,0
18.07.2019 23:00:00 18,2 15,3 14,9 23,5 21,9 3 2 7 4 W 1018,9 24 0,0
18.07.2019 22:00:00 19,5 15,6 17,2 23,4 21,9 5 3 19 10 WNW 1018,6 24 0,0
18.07.2019 21:00:00 21,4 15,7 21,4 23,3 21,9 11 6 22 12 W 1018,4 26 0,0
18.07.2019 20:00:00 22,5 14,9 24,0 23,2 21,9 11 6 24 13 W 1018,2 16 0,0
18.07.2019 19:00:00 23,0 13,7 25,4 23,2 21,9 16 8 27 15 WNW 1018,2 38 0,0
18.07.2019 18:00:00 24,0 12,9 28,3 23,1 21,9 12 7 31 17 W 1018,2 41 0,0
18.07.2019 17:00:00 24,7 12,9 30,0 23,1 21,9 16 9 27 15 W 1018,5 40 0,0
18.07.2019 16:00:00 25,0 11,9 31,8 23,1 21,9 14 7 27 15 WSW 1018,5 32 0,0
18.07.2019 15:00:00 24,6 11,2 28,7 23,1 21,9 16 9 28 15 WSW 1018,7 32 0,0
18.07.2019 14:00:00 23,8 10,8 27,3 23,2 21,9 12 7 25 13 W 1018,8 29 0,0
18.07.2019 13:00:00 23,8 12,1 28,0 23,3 21,9 14 8 29 16 W 1019,0 41 0,0
18.07.2019 12:00:00 22,7 11,4 24,7 23,4 21,9 14 8 28 15 W 1019,0 38 0,0
18.07.2019 11:00:00 21,9 12,4 23,8 23,4 21,9 14 7 27 15 WNW 1018,8 26 0,0
18.07.2019 10:00:00 21,8 13,2 23,5 23,5 21,9 12 7 22 12 W 1018,6 21 0,0
18.07.2019 09:00:00 20,3 14,6 19,3 23,6 21,9 7 4 13 7 N 1018,5 24 0,0
18.07.2019 08:00:00 16,6 14,6 11,7 23,6 21,8 0 0 0 0 N 1018,4 17 0,0
18.07.2019 07:00:00 14,3 12,3 11,8 23,7 21,9 0 0 0 0 N 1018,2 17 0,0
18.07.2019 06:00:00 14,5 12,5 9,9 23,8 21,9 0 0 4 2 N 1018,0 18 0,0
18.07.2019 05:00:00 15,7 13,5 10,1 23,8 21,8 3 1 6 3 W 1017,8 19 0,0
18.07.2019 04:00:00 16,2 13,3 11,1 23,8 21,9 4 2 8 4 W 1018,1 23 0,0
18.07.2019 03:00:00 16,9 13,6 12,1 23,8 21,9 4 2 10 5 WNW 1018,3 23 0,0
18.07.2019 02:00:00 18,0 13,7 14,1 23,8 21,9 6 3 15 8 WNW 1018,3 23 0,0
18.07.2019 01:00:00 17,6 14,1 14,3 23,7 21,8 4 2 13 7 W 1018,4 23 0,0
18.07.2019 00:00:00 17,8 14,3 14,8 23,7 21,9 5 3 13 7 WNW 1018,2 23 0,0
17.07.2019 23:00:00 18,5 15,0 16,3 23,6 21,9 6 3 16 9 WNW 1018,3 21 0,0
17.07.2019 22:00:00 19,3 15,2 18,1 23,5 21,8 11 6 27 15 WNW 1017,8 23 0,0
17.07.2019 21:00:00 20,8 16,0 21,2 23,4 21,9 16 8 32 17 NW 1017,5 24 0,0
17.07.2019 20:00:00 21,6 16,3 22,5 23,3 21,8 18 10 34 18 NW 1017,0 26 0,0
17.07.2019 19:00:00 23,1 16,2 27,6 23,3 21,8 21 11 30 16 WNW 1016,9 30 0,0
17.07.2019 18:00:00 24,6 15,8 30,9 23,2 21,8 18 10 35 19 NNW 1016,8 31 0,0
17.07.2019 17:00:00 24,8 15,4 31,4 23,2 21,8 23 13 35 19 WNW 1017,1 32 0,0
17.07.2019 16:00:00 25,7 13,9 31,8 23,2 21,8 21 11 32 18 WNW 1017,0 34 0,0
17.07.2019 15:00:00 25,7 13,9 33,0 23,2 21,8 20 11 34 18 WNW 1017,0 35 0,0
17.07.2019 14:00:00 26,1 12,5 32,8 23,2 21,8 18 10 31 17 WNW 1017,0 38 0,0
17.07.2019 13:00:00 25,6 13,1 32,7 23,3 21,8 19 11 30 16 NW 1017,1 40 0,0
17.07.2019 12:00:00 25,8 12,6 31,0 23,4 21,8 19 10 34 18 NNW 1016,8 37 0,0
17.07.2019 11:00:00 24,7 14,5 29,1 23,4 21,8 14 8 23 13 WNW 1016,6 28 0,0
17.07.2019 10:00:00 23,6 14,3 25,7 23,5 21,8 14 8 23 12 NNW 1016,5 26 0,0
17.07.2019 09:00:00 22,2 17,3 22,3 23,6 21,8 12 7 19 11 NW 1016,3 27 0,0
17.07.2019 08:00:00 18,5 17,7 11,6 23,6 21,8 2 1 8 5 NW 1016,3 18 0,0
17.07.2019 07:00:00 14,5 13,5 11,5 23,7 21,8 3 2 4 2 SW 1016,3 13 0,0
17.07.2019 06:00:00 15,1 12,8 13,0 23,7 21,8 0 0 8 4 N 1016,0 14 0,0
17.07.2019 05:00:00 18,0 16,2 16,3 23,8 21,8 8 4 13 7 NW 1015,9 19 0,0
17.07.2019 04:00:00 18,4 16,6 16,1 23,8 21,8 8 4 13 7 NW 1016,2 23 0,0
17.07.2019 03:00:00 17,8 15,1 15,0 23,8 21,8 9 5 13 7 NW 1016,8 27 0,0
17.07.2019 02:00:00 18,0 14,1 15,3 23,8 21,8 8 4 16 9 NW 1016,8 26 0,0
17.07.2019 01:00:00 18,6 14,3 15,7 23,7 21,8 10 5 16 9 NNW 1016,6 29 0,0
17.07.2019 00:00:00 19,3 14,5 16,6 23,6 21,8 6 4 14 8 NNW 1016,9 30 0,0
16.07.2019 23:00:00 20,5 14,8 19,0 23,6 21,8 11 6 21 11 NNW 1016,8 32 0,0
16.07.2019 22:00:00 21,6 14,0 20,4 23,5 21,8 14 8 25 13 NNW 1016,5 34 0,0
16.07.2019 21:00:00 23,4 12,7 24,1 23,4 21,8 17 9 31 17 NNW 1016,4 34 0,0
16.07.2019 20:00:00 24,6 12,9 26,7 23,3 21,8 22 12 35 19 NNW 1016,4 56 0,0
16.07.2019 19:00:00 26,0 11,0 30,7 23,2 21,8 22 12 36 19 NW 1016,0 44 0,0
16.07.2019 18:00:00 26,8 10,1 33,5 23,2 21,8 21 12 34 19 NW 1016,1 39 0,0
16.07.2019 17:00:00 27,3 10,1 34,7 23,1 21,8 20 11 34 18 NW 1016,6 38 0,0
16.07.2019 16:00:00 27,7 9,5 35,4 23,1 21,8 23 13 32 17 NNW 1016,9 33 0,0
16.07.2019 15:00:00 27,7 9,5 35,2 23,1 21,8 20 11 32 17 WNW 1017,1 33 0,0
16.07.2019 14:00:00 27,6 10,3 34,8 23,1 21,8 16 9 32 18 WSW 1017,2 35 0,0
16.07.2019 13:00:00 28,4 8,6 36,1 23,2 21,8 5 3 22 12 N 1017,4 28 0,0
16.07.2019 12:00:00 26,9 12,2 32,5 23,3 21,8 9 5 20 11 S 1017,7 42 0,0
16.07.2019 11:00:00 24,4 14,8 25,2 23,4 21,8 8 4 13 7 SW 1017,7 26 0,0
16.07.2019 10:00:00 21,4 15,9 21,8 23,5 21,8 5 3 11 6 WSW 1018,0 16 0,0
16.07.2019 09:00:00 17,8 16,5 17,7 23,6 21,8 0 0 4 2 N 1017,9 17 0,0
16.07.2019 08:00:00 14,2 13,4 9,5 23,7 21,8 3 2 7 4 SSW 1017,6 12 0,0
16.07.2019 07:00:00 11,2 10,3 9,0 23,7 21,8 0 0 3 2 N 1017,3 22 0,0
16.07.2019 06:00:00 13,0 12,1 9,2 23,8 21,8 3 2 8 4 N 1017,1 23 0,0
16.07.2019 05:00:00 14,8 13,8 11,3 23,8 21,8 5 3 9 5 N 1017,2 10 0,0
16.07.2019 04:00:00 15,7 14,6 12,3 23,8 21,8 6 4 10 5 N 1017,4 14 0,0
16.07.2019 03:00:00 16,5 15,2 13,9 23,8 21,8 8 4 14 7 N 1017,6 16 0,0
16.07.2019 02:00:00 17,3 15,3 15,3 23,8 21,8 11 6 16 8 N 1017,7 23 0,0
16.07.2019 01:00:00 17,8 15,1 16,0 23,8 21,8 11 6 20 11 NNW 1017,9 19 0,0
16.07.2019 00:00:00 18,6 14,5 17,0 23,7 21,8 14 8 24 13 NNW 1018,0 22 0,0
15.07.2019 23:00:00 18,9 15,0 17,5 23,6 21,8 12 7 19 10 NW 1017,9 23 0,0
15.07.2019 22:00:00 20,3 14,9 19,1 23,5 21,8 14 8 26 14 NNW 1017,3 24 0,0
15.07.2019 21:00:00 22,5 13,0 23,9 23,5 21,8 17 9 30 16 NNW 1016,9 28 0,0
15.07.2019 20:00:00 25,2 12,1 28,0 23,4 21,8 16 8 32 17 NW 1016,8 29 0,0
15.07.2019 19:00:00 25,9 10,1 32,0 23,3 21,8 20 11 31 17 N 1016,5 33 0,0
15.07.2019 18:00:00 26,1 10,7 32,6 23,3 21,8 21 12 35 19 NNW 1016,6 28 0,0
15.07.2019 17:00:00 26,0 11,0 32,9 23,2 21,7 21 11 36 19 NNW 1016,9 26 0,0

tt = Température de l'air
td = dewpoint
tt 5cm = Température de l'air 5cm
tt -20cm = Température de l'air -20cm
tt -100cm = Température de l'air -100cm
ff = Vitesse du vent
fx = gusts
dd = Direction du vent
ppp = reduced air pressure
vv = visibility
rr = Quantités de précipitations

stations d'obs. à proximité